Weather History for Goshen, IN

Change the Weather History Date:

Monday, September 9, 2013

  Actual Average Record
Temperature  
Mean Temperature 78 °F -  
Max Temperature 93 °F 77 °F 94 °F (1955)
Min Temperature 64 °F 55 °F 38 °F (1986)
Cooling Degree Days 12    
Growing Degree Days 28 (Base 50)    
Moisture  
Dew Point 63 °F    
Average Humidity 63    
Maximum Humidity 75    
Minimum Humidity 45    
Precipitation  
Precipitation 0.00 in - - ()
Sea Level Pressure  
Sea Level Pressure 29.95 in    
Wind  
Wind Speed 8 mph (SSE)    
Max Wind Speed 16 mph    
Max Gust Speed 21 mph    
Visibility 10 miles    
Events      
Averages and records for this station are not official NWS values.
T = Trace of Precipitation, MM = Missing Value Source: NWS Daily Summary

Daily Weather History Graph

Daily Weather History Graph

Search for Another Location

Airport:

Trip Planner

Search our weather history database for the weather conditions in past years. The results will help you decide how hot, cold, wet, or windy it might be!

Date:

Astronomy

Sep. 09, 2013 Rise Set
Actual Time 7:17 AM EDT 8:02 PM EDT
Civil Twilight 6:49 AM EDT 8:30 PM EDT
Nautical Twilight 6:16 AM EDT 9:03 PM EDT
Astronomical Twilight 5:41 AM EDT 9:37 PM EDT
Moon 11:42 AM EDT (9/9) 10:14 PM EDT (9/9)
Length of Visible Light 13h 40m
Length of Day
12h 44m
Waxing Crescent, 19% of the Moon is Illuminated
Sep 9
Waxing Crescent
Sep 12
First Quarter
Sep 19
Full
Sep 26
Last Quarter
Oct 4
New

Hourly Weather History & Observations

Time (EDT) Temp. Heat Index Dew Point Humidity Pressure Visibility Wind Dir Wind Speed Gust Speed Precip Events Conditions
12:53 AM 66.0 °F - 57.9 °F 75% 30.02 in 10.0 mi SE 8.1 mph - N/A   Clear
1:53 AM 64.9 °F - 57.0 °F 75% 30.03 in 10.0 mi SE 6.9 mph - N/A   Clear
2:53 AM 66.0 °F - 54.0 °F 65% 30.02 in 10.0 mi ESE 8.1 mph - N/A   Overcast
3:53 AM 66.0 °F - 52.0 °F 60% 30.00 in 10.0 mi ESE 5.8 mph - N/A   Mostly Cloudy
4:53 AM 64.9 °F - 51.1 °F 61% 29.99 in 10.0 mi ESE 6.9 mph - N/A   Scattered Clouds
5:53 AM 64.9 °F - 52.0 °F 63% 29.98 in 10.0 mi ESE 6.9 mph - N/A   Clear
6:53 AM 64.0 °F - 53.1 °F 67% 29.99 in 10.0 mi ENE 5.8 mph - N/A   Partly Cloudy
7:53 AM 64.0 °F - 53.1 °F 67% 29.99 in 10.0 mi ESE 8.1 mph - N/A   Clear
8:53 AM 64.9 °F - 55.9 °F 73% 30.00 in 10.0 mi ESE 4.6 mph - N/A   Clear
9:53 AM 66.9 °F - 57.0 °F 70% 30.00 in 10.0 mi SE 8.1 mph - N/A   Partly Cloudy
10:53 AM 71.1 °F - 61.0 °F 70% 30.00 in 10.0 mi SE 8.1 mph - N/A   Scattered Clouds
11:53 AM 75.9 °F - 64.0 °F 67% 29.98 in 10.0 mi SE 8.1 mph - N/A   Scattered Clouds
12:53 PM 82.0 °F 84.5 °F 66.9 °F 60% 29.96 in 10.0 mi SSW 8.1 mph - N/A   Partly Cloudy
1:53 PM 84.9 °F 88.2 °F 68.0 °F 57% 29.95 in 10.0 mi South 8.1 mph - N/A   Clear
2:53 PM 88.0 °F 92.1 °F 69.1 °F 53% 29.93 in 9.0 mi South 13.8 mph 20.7 mph N/A   Clear
3:53 PM 91.9 °F 96.9 °F 69.1 °F 47% 29.90 in 10.0 mi South 11.5 mph - N/A   Partly Cloudy
4:53 PM 91.9 °F 95.9 °F 68.0 °F 45% 29.88 in 10.0 mi SSW 12.7 mph - N/A   Clear
5:53 PM 91.9 °F 96.9 °F 69.1 °F 47% 29.87 in 10.0 mi South 16.1 mph - N/A   Clear
6:53 PM 90.0 °F 95.4 °F 70.0 °F 52% 29.88 in 10.0 mi SSW 8.1 mph - N/A   Clear
7:53 PM 84.9 °F 90.1 °F 71.1 °F 63% 29.88 in 10.0 mi South 6.9 mph - N/A   Clear
8:53 PM 82.9 °F 87.5 °F 71.1 °F 67% 29.89 in 10.0 mi South 8.1 mph - N/A   Clear
9:53 PM 82.9 °F 87.5 °F 71.1 °F 67% 29.90 in 10.0 mi SSW 11.5 mph - N/A   Clear
10:53 PM 82.0 °F 86.3 °F 71.1 °F 69% 29.90 in 9.0 mi SSW 11.5 mph - N/A   Clear
11:53 PM 80.1 °F 83.6 °F 71.1 °F 74% 29.91 in 9.0 mi SSW 9.2 mph - N/A   Clear